DW6120 Weather Reports


Display with metric or nautical units.
time (UTC)temp
F
wind
direction
speed
MPH
gust
MPH
rain 1hr
in
rain 24hr
in
rain mn
in
humidity
%
barometer
mb
20260509224528 67 327 6.0 12.0 0.00 0.00 0.00 22 1013.3
20260509223016 66 16 7.0 16.0 0.00 0.00 0.00 23 1013.3
20260509221515 67 355 7.0 15.0 0.00 0.00 0.00 24 1013.4
20260509220015 67 321 8.0 13.0 0.00 0.00 0.00 25 1013.6
20260509214514 67 280 5.0 9.0 0.00 0.00 0.00 24 1013.5
20260509213013 66 31 4.0 12.0 0.00 0.00 0.00 25 1013.6
20260509211512 65 28 5.0 11.0 0.00 0.00 0.00 26 1013.7
20260509210012 65 319 7.0 12.0 0.00 0.00 0.00 24 1013.7
20260509204512 65 355 7.0 11.0 0.00 0.00 0.00 24 1013.8
20260509203012 66 334 5.0 10.0 0.00 0.00 0.00 24 1013.9
20260509201512 66 79 2.0 11.0 0.00 0.00 0.00 26 1014.0
20260509200009 65 42 5.0 11.0 0.00 0.00 0.00 25 1014.1
20260509194508 64 348 3.0 10.0 0.00 0.00 0.00 25 1014.1
20260509193009 64 308 5.0 15.0 0.00 0.00 0.00 24 1014.4
20260509191509 65 310 3.0 11.0 0.00 0.00 0.00 26 1014.3
20260509190011 63 338 3.0 12.0 0.00 0.00 0.00 24 1014.4
20260509184516 63 40 3.0 13.0 0.00 0.00 0.00 25 1014.5
20260509183007 64 329 8.0 15.0 0.00 0.00 0.00 25 1014.5
20260509181503 62 298 6.0 13.0 0.00 0.00 0.00 25 1014.6
20260509180002 62 33 6.0 13.0 0.00 0.00 0.00 24 1014.4
20260509174501 62 318 4.0 11.0 0.00 0.00 0.00 27 1014.5
20260509173003 61 5 6.0 13.0 0.00 0.00 0.00 24 1014.5
20260509171504 62 347 5.0 11.0 0.00 0.00 0.00 24 1014.4
20260509170003 61 13 5.0 13.0 0.00 0.00 0.00 22 1014.4
20260509164503 62 18 6.0 17.0 0.00 0.00 0.00 24 1014.5
20260509163002 62 346 6.0 13.0 0.00 0.00 0.00 24 1014.4
20260509161604 62 33 6.0 15.0 0.00 0.00 0.00 24 1014.6
20260509160059 62 75 8.0 16.0 0.00 0.00 0.00 25 1014.5
20260509154612 62 68 7.0 18.0 0.00 0.00 0.00 26 1014.6
20260509153109 61 58 5.0 12.0 0.00 0.00 0.00 27 1014.6
20260509151601 61 360 3.0 16.0 0.00 0.00 0.00 27 1014.4
20260509150052 61 38 3.0 9.0 0.00 0.00 0.00 28 1014.1
20260509144549 60 20 5.0 14.0 0.00 0.00 0.00 28 1014.2
20260509143057 59 14 6.0 10.0 0.00 0.00 0.00 28 1014.1
20260509141548 57 341 3.0 11.0 0.00 0.00 0.00 33 1014.1
20260509140046 55 360 6.0 13.0 0.00 0.00 0.00 32 1013.9
20260509134545 55 26 5.0 14.0 0.00 0.00 0.00 32 1013.8
20260509133056 54 55 3.0 8.0 0.00 0.00 0.00 34 1013.5
20260509131543 54 24 5.0 10.0 0.00 0.00 0.00 34 1013.3
20260509130042 53 37 4.0 10.0 0.00 0.00 0.00 36 1013.1
20260509124542 52 188 2.0 3.0 0.00 0.00 0.00 39 1012.9
20260509123039 53 44 0.0 4.0 0.00 0.00 0.00 38 1012.7
20260509121539 54 65 3.0 9.0 0.00 0.00 0.00 37 1012.4
20260509120032 53 45 3.0 8.0 0.00 0.00 0.00 39 1012.2
20260509114535 52 119 1.0 6.0 0.00 0.00 0.00 44 1012.1
20260509113035 51 119 1.0 3.0 0.00 0.00 0.00 46 1012.0
20260509111529 52 119 1.0 3.0 0.00 0.00 0.00 45 1011.9
20260509110028 51 123 0.0 4.0 0.00 0.00 0.00 47 1011.7
20260509104525 52 294 0.0 4.0 0.00 0.00 0.00 51 1011.7
20260509103024 53 323 1.0 5.0 0.00 0.00 0.00 49 1011.5
20260509101529 54 306 1.0 6.0 0.00 0.00 0.00 43 1011.4
20260509100022 54 79 1.0 2.0 0.00 0.00 0.00 45 1011.2
20260509094529 53 83 1.0 5.0 0.00 0.00 0.00 46 1011.2
20260509093021 53 115 1.0 4.0 0.00 0.00 0.00 48 1011.2
20260509091523 54 120 1.0 3.0 0.00 0.00 0.00 49 1011.0
20260509090013 55 119 2.0 4.0 0.00 0.00 0.00 45 1010.9
20260509084510 57 122 1.0 4.0 0.00 0.00 0.00 42 1010.6
20260509083008 58 103 1.0 3.0 0.00 0.00 0.00 39 1010.4
20260509081521 59 103 0.0 5.0 0.00 0.00 0.00 38 1010.4
20260509080009 59 59 4.0 9.0 0.00 0.00 0.00 37 1010.3
20260509074508 57 87 7.0 9.0 0.00 0.00 0.00 40 1010.1
20260509073015 56 98 4.0 7.0 0.00 0.00 0.00 41 1010.4
20260509071502 57 145 4.0 6.0 0.00 0.00 0.00 39 1010.0
20260509070106 58 105 6.0 8.0 0.00 0.00 0.00 37 1009.6
20260509064602 58 89 4.0 9.0 0.00 0.00 0.00 37 1009.4
20260509063111 58 90 2.0 5.0 0.00 0.00 0.00 37 1009.6
20260509061616 59 91 3.0 8.0 0.00 0.00 0.00 36 1009.6
20260509060059 59 123 3.0 8.0 0.00 0.00 0.00 36 1009.6
20260509054550 60 87 3.0 6.0 0.00 0.00 0.00 34 1009.5
20260509053050 61 79 5.0 9.0 0.00 0.00 0.00 33 1009.2
20260509051550 60 98 4.0 8.0 0.00 0.00 0.00 33 1009.0
20260509050049 61 136 3.0 7.0 0.00 0.00 0.00 33 1009.1
20260509044549 62 94 1.0 3.0 0.00 0.00 0.00 32 1009.2
20260509043050 62 62 3.0 6.0 0.00 0.00 0.00 33 1008.9
20260509041548 62 95 5.0 8.0 0.00 0.00 0.00 32 1008.8
20260509040048 62 98 4.0 7.0 0.00 0.00 0.00 32 1008.7
20260509034547 62 92 5.0 9.0 0.00 0.00 0.00 32 1008.7
20260509033047 61 84 1.0 5.0 0.00 0.00 0.00 35 1008.5
20260509031555 62 83 3.0 9.0 0.00 0.00 0.00 33 1008.4
20260509030057 63 74 5.0 8.0 0.00 0.00 0.00 33 1008.4
20260509024556 61 148 3.0 8.0 0.00 0.00 0.00 33 1008.4
20260509023054 64 90 3.0 7.0 0.00 0.00 0.00 34 1008.4
20260509021551 66 47 8.0 11.0 0.00 0.00 0.00 31 1008.3
20260509020055 69 75 4.0 7.0 0.00 0.00 0.00 29 1008.3
20260509014551 71 22 0.0 6.0 0.00 0.00 0.00 25 1008.3
20260509013052 72 22 2.0 6.0 0.00 0.00 0.00 25 1008.5
20260509011545 72 196 1.0 3.0 0.00 0.00 0.00 25 1008.7
20260509010045 72 22 2.0 5.0 0.00 0.00 0.00 25 1008.8
20260509004542 72 333 1.0 4.0 0.00 0.00 0.00 26 1008.9
20260509003044 72 334 4.0 7.0 0.00 0.00 0.00 26 1009.1
20260509001537 71 11 3.0 7.0 0.00 0.00 0.00 25 1009.1
20260509000036 71 11 3.0 7.0 0.00 0.00 0.00 26 1009.2
20260508234535 71 313 4.0 11.0 0.00 0.00 0.00 27 1009.3
20260508233036 71 280 1.0 11.0 0.00 0.00 0.00 25 1009.3
20260508231535 71 53 7.0 11.0 0.00 0.00 0.00 26 1009.4
20260508230033 70 26 5.0 17.0 0.00 0.00 0.00 26 1009.7